Regional Weather Roundup
Issued by NWS

Home | Current Version | Previous Version | Graphics & Text | Print | Product List | Glossary On
Versions: 1 2 3 4 5 6 7 8 9 10 11 12 13 14 15 16 17 18 19 20 21 22 23 24 25 26 27 28 29 30 31 32 33 34 35 36 37 38 39 40 41 42 43 44 45 46 47 48 49 50
281
ASUS44 KLIX 220405
RWRLA
LOUISIANA WEATHER ROUNDUP
NATIONAL WEATHER SERVICE NEW ORLEANS LA
1100 PM CDT SUN SEP 21 2014

NOTE: "FAIR" INDICATES FEW OR NO CLOUDS BELOW 12,000 FEET WITH NO
      SIGNIFICANT WEATHER AND/OR OBSTRUCTIONS TO VISIBILITY.
      SKY/WX - SKY CONDITION AND SIGNIFICANT WEATHER.
      TMP - AIR TEMPERATURE.    DP   - DEWPOINT TEMPERATURE.
      RH  - RELATIVE HUMIDITY.  PRES - PRESSURE.
      HX  - HEAT INDEX.         WCI  - WIND CHILL INDEX.

*  THESE STATIONS ARE NOT NWS OR FAA STATIONS AND ARE NOT UNDER
   NWS QUALITY CONTROL.

LAZ040-048-061>063-065-066-069-220500-
SOUTHEAST LOUISIANA

CITY           SKY/WX    TMP DP  RH WIND       PRES   REMARKS
N.O. AUDUBON   NOT AVBL
N.O. INTL ARPT PTCLDY    77  66  68 CALM      30.02R
N.O. LAKEFRONT CLEAR     78  71  79 S3        30.02R
N.O. DOWNTOWN* FAIR      81  66  61 SE5       30.02S
SLIDELL        CLEAR     71  68  90 CALM      30.01S
BATON ROUGE    CLEAR     71  69  93 CALM      30.02S
BOOTHVILLE     CLEAR     81  73  76 E5        30.00S
BELLE CHASSE   CLEAR     72  68  87 N5        30.01R
BOGALUSA*      FAIR      71  67  87 CALM      30.03S
GALLIANO*      NOT AVBL
NEW ROADS*     FAIR      72  70  94 CALM      30.03S
GONZALES*      FAIR      71  71 100 CALM      30.02S
HAMMOND*       CLEAR     72  66  83 CALM      30.04R
HOUMA*         CLEAR     71  66  84 CALM      30.02R
PORT FOURCHON* CLEAR     81  73  78 E7        30.03S

$$

LAZ041-044-053-054-220500-
SOUTHWEST LOUISIANA

CITY           SKY/WX    TMP DP  RH WIND       PRES   REMARKS
LAKE CHARLES   CLEAR     74  71  91 CALM      30.03R
LAFAYETTE      CLEAR     75  72  90 CALM      30.03R
PATTERSON      CLEAR     72  70  94 CALM      30.05R
SALT POINT       N/A     76  71  85 CALM      30.01R
NEW IBERIA     CLEAR     73  70  90 CALM      30.03R
CHENAULT AIRPK CLEAR     75  72  91 CALM      30.04R

$$

LAZ027-028-220500-
CENTRAL LOUISIANA

CITY           SKY/WX    TMP DP  RH WIND       PRES   REMARKS
FORT POLK      CLEAR     74  72  93 CALM      30.05R
ALEXANDRIA INT CLEAR     74  70  87 CALM      30.02R
ALEXANDRIA     CLEAR     73  71  93 CALM      30.04R

$$

LAZ001-002-220500-
NORTHWEST LOUISIANA

CITY           SKY/WX    TMP DP  RH WIND       PRES   REMARKS
SHREVEPORT     PTCLDY    81  68  64 N5        30.05R
BARKSDALE AFB  PTCLDY    76  68  76 SE1       30.05S
DTN SHREVEPORT PTCLDY    77  71  82 NW3       30.05R

$$

LAZ014-016-220500-
NORTHEAST LOUISIANA

CITY           SKY/WX    TMP DP  RH WIND       PRES   REMARKS
MONROE         PTCLDY    79  70  74 N6        30.04R
TALLULAH       CLEAR     72  69  90 CALM      30.03R

$$




USA.gov is the U.S. government's official web portal to all federal, state and local government web resources and services.